www.pogodaiklimat.ru
ПОГОДА Qaarsut Mittarfia
Время
(UTC), дата
22 25.11
23 25.11
00 26.11
01 26.11
02 26.11
03 26.11
04 26.11
05 26.11
06 26.11
07 26.11
08 26.11
09 26.11
10 26.11
11 26.11
12 26.11
13 26.11
14 26.11
15 26.11
16 26.11
17 26.11
18 26.11
19 26.11
20 26.11
21 26.11
22 26.11
23 26.11
00 27.11
01 27.11
02 27.11
03 27.11
04 27.11
05 27.11
06 27.11
07 27.11
08 27.11
09 27.11
10 27.11
11 27.11
12 27.11
13 27.11
14 27.11
15 27.11
16 27.11
17 27.11
18 27.11
19 27.11
20 27.11
21 27.11
22 27.11
23 27.11
00 28.11
01 28.11
02 28.11
03 28.11
04 28.11
05 28.11
06 28.11
07 28.11
08 28.11
09 28.11
10 28.11
11 28.11
12 28.11
13 28.11
14 28.11
15 28.11
16 28.11
17 28.11
18 28.11
19 28.11
20 28.11
21 28.11
22 28.11
23 28.11
00 29.11
01 29.11
02 29.11
03 29.11
04 29.11
05 29.11
06 29.11
07 29.11
08 29.11
09 29.11
10 29.11
11 29.11
12 29.11
13 29.11
14 29.11
15 29.11
16 29.11
17 29.11
18 29.11
19 29.11
20 29.11
21 29.11
22 29.11
23 29.11
00 30.11
01 30.11
02 30.11
03 30.11
04 30.11
05 30.11
06 30.11
07 30.11
08 30.11
09 30.11
10 30.11
11 30.11
12 30.11
13 30.11
14 30.11
15 30.11
16 30.11
17 30.11
18 30.11
19 30.11
20 30.11
21 30.11
22 30.11
23 30.11
00 1.12
01 1.12
02 1.12
03 1.12
04 1.12
05 1.12
06 1.12
07 1.12
08 1.12
09 1.12
10 1.12
11 1.12
12 1.12
13 1.12
14 1.12
15 1.12
16 1.12
17 1.12
18 1.12
19 1.12
20 1.12
21 1.12
22 1.12
23 1.12
00 2.12
01 2.12
02 2.12
03 2.12
04 2.12
05 2.12
06 2.12
07 2.12
08 2.12
09 2.12
10 2.12
11 2.12
12 2.12
13 2.12
14 2.12
15 2.12
16 2.12
17 2.12
18 2.12
19 2.12
20 2.12
21 2.12
22 2.12
Ветер
(напр.,м/с)
Видим. Явления Облачность Т
(С)
Тd
(С)
f
(%)
Тe
(С)
Тes
(С)
Комфортность P
(гПа)
Po
(гПа)
Тmin
(С)
Tmax
(С)
R
(мм)
R24
(мм)
S
(см)
З 7 16 км слаб. переохл. дождь (гололёд) 10/10 1140 м -4.1 -8.0 74 -12 -12 970.6 959.7
СЗ 6 7000 м слаб. переохл. дождь (гололёд) 10/10 1350 м -4.3 -6.9 82 -12 -12 970.7 959.9
СЗ 9 12 км слаб. переохл. дождь (гололёд) 10/10 900 м -4.3 -7.1 81 -13 -13 970.7 959.9
СЗ 9 23 км в посл. час переохл. осадки (гололёд) 10/10 1500 м -5.1 -7.3 85 -14 -14 971.0 960.1
СЗ 11 10 км слаб. переохл. морось (гололёд) {дождь} 10/10 1500 м -5.6 -8.0 83 -16 -16 971.2 960.3
СЗ 14 4100 м слаб. переохл. дождь (гололёд) 10/10 1500 м -5.6 -8.4 81 -17 -17 971.3 960.4
СЗ 12
{18}
1600 м слаб. переохл. морось (гололёд) {дождь} 10/10 840 м -6.0 -8.8 81 -17 -17 971.9 961.0
СЗ 11 5000 м слаб. переохл. дождь (гололёд) 10/10 1500 м -5.8 -9.3 76 -16 -16 972.5 961.5
З 19-18
{21}
1800 м слаб. переохл. дождь (гололёд) 10/10 1110 м -5.7 -9.4 75 -15 -15 973.1 962.1 -7.2 -3.8
СЗ 16-21
{23}
600 м слаб. снег {дождь} 9/9 450 м -7.6 -10.0 83 -20 -20 973.7 962.7
СЗ 18 600 м слаб. снег {дождь} 9/9 120 м -7.9 -10.3 83 -21 -21 975.3 964.3
СЗ 20-24
{28}
800 м слаб. снег {дождь} 8/8 120 м -8.1 -11.5 76 -21 -21 976.4 965.4
СЗ 19 1300 м слаб. снег {дождь} 8/0 -8.4 -12.4 73 -21 -21 978.0 966.9
СЗ 17-25
{25}
1800 м слаб. снег {дождь} ясно -8.4 -14.0 64 -21 -21 979.3 968.2
СЗ 16
{28}
2500 м слаб. снег 5/5 240 м -9.2 -13.1 73 -22 -22 981.2 970.1
З 14 8000 м слаб. ливневой снег ясно -9.8 -15.5 63 -22 -22 982.7 971.5
З 9 35 км в посл. час снег {ливн. снег} ясно -9.8 -17.8 52 -20 -20 983.8 972.6
З 10
{14}
35 км {ливн. снег, снег} 1/1 1320 м -10.1 -15.8 63 -21 -21 985.6 974.4
ЮЗ 5 35 км {ливн. снег, снег} ясно -12.0 -19.6 53 -20 -20 986.7 975.3
Ю 3 35 км {ливн. снег, снег} 10/0 -9.4 -18.4 48 -14 -14 987.6 976.4
Ю 4
{14}
35 км 10/10 1320 м -9.1 -17.9 49 -15 -15 988.9 977.6 -12.3 -5.1
З 3 35 км 10/10 1500 м -8.7 -18.0 47 -14 -14 989.9 978.7
З 5 35 км слаб. ливневой снег 10/10 900 м -9.4 -14.9 64 -17 -17 991.1 979.9
З 4 35 км в посл. час снег {ливн. снег} 10/10 1140 м -9.0 -15.2 61 -16 -16 991.7 980.4
З 4 35 км слаб. ливневой снег 10/0 2000 м -9.1 -15.0 62 -15 -15 992.3 981.0
ЮЗ 4 35 км в посл. час снег {ливн. снег} 10/0 2000 м -9.4 -15.3 62 -16 -16 992.6 981.3
Ю 2 35 км {ливн. снег} 10/0 2000 м -9.3 -16.8 54 -13 -13 993.0 981.7
ЮЗ 3 35 км 10/0 2000 м -9.7 -17.4 53 -15 -15 993.4 982.1
СЗ 2 35 км 10/10 1110 м -8.9 -17.7 49 -13 -13 993.5 982.2
ЮВ 5 35 км 9/0 -9.3 -16.3 57 -17 -17 993.6 982.3
Ю 3 35 км 9/9 800 м -9.3 -17.8 50 -15 -15 993.6 982.2
ЮВ 5 35 км 4/0 -9.2 -20.7 39 -16 -16 993.5 982.2
ЮЗ 4 35 км 9/0 -8.9 -14.1 66 -15 -15 993.4 982.1 -10.1 -7.8
ЮЗ 5 35 км 10/0 2000 м -9.4 -18.4 48 -17 -17 993.6 982.3
З 3 8000 м слаб. снег 10/10 1110 м -8.4 -15.5 57 -14 -14 993.9 982.6
З 2 1200 м слаб. снег 10/10 210 м -9.8 -12.3 82 -14 -14 994.2 982.9
СЗ 4 600 м снег 10/10 240 м -10.4 -12.2 87 -17 -17 994.6 983.2
ЮЗ 7 2600 м слаб. снег 10/10 360 м -10.7 -13.5 80 -20 -20 995.2 983.8
ЮЗ 3 4300 м слаб. ливневой снег 10/10 600 м -10.6 -12.9 83 -17 -17 996.0 984.6
З 5 1600 м слаб. снег 9/9 420 м -10.7 -12.7 85 -18 -18 997.1 985.7
З 3 35 км в посл. час снег {ливн. снег} 10/10 1380 м -10.6 -14.1 75 -16 -16 997.4 986.0
ЮЗ 2 35 км {ливн. снег} 10/0 2000 м -9.7 -18.2 50 -14 -14 998.0 986.6
ЮЗ 5 35 км {ливн. снег} 10/0 -10.3 -22.4 36 -18 -18 998.7 987.3
ЮЗ 6 35 км {ливн. снег} ясно -12.9 -24.1 39 -22 -22 999.5 987.9
ЮЗ 8 35 км ясно -11.3 -24.2 34 -21 -21 1000.0 988.5 -13.3 -8.2
ЮЗ 6 35 км ясно -11.9 -22.9 40 -20 -20 1000.5 989.0
ЮЗ 5 35 км ясно -12.1 -24.0 36 -20 -20 1001.0 989.5
ЮЗ 6 35 км ясно -13.3 -24.5 38 -23 -23 1001.5 990.0
Ю 3 35 км ясно -11.1 -25.1 30 -17 -17 1001.6 990.1
Ю 3 35 км ясно -11.7 -24.3 34 -17 -17 1001.6 990.1
Ю 4 35 км ясно -11.8 -23.7 37 -18 -18 1001.7 990.1
В 3 35 км ясно -11.8 -25.4 31 -17 -17 1001.7 990.2
ЮВ 5 35 км ясно -11.7 -24.0 35 -19 -19 1001.8 990.3
ЮВ 6 35 км ясно -11.5 -22.0 41 -20 -20 1001.6 990.1
ЮВ 7 35 км ясно -11.6 -23.9 35 -21 -21 1001.3 989.8
ЮВ 6 35 км ясно -11.6 -23.2 38 -20 -20 1001.1 989.6
ЮВ 6 35 км ясно -12.8 -24.6 37 -22 -22 1000.7 989.1 -13.8 -9.8
ЮВ 7 35 км ясно -12.2 -22.6 42 -22 -22 1000.3 988.8
ЮВ 7 35 км ясно -12.1 -20.9 48 -22 -22 1000.2 988.6
ЮВ 7 35 км ясно -12.4 -22.0 45 -22 -22 999.8 988.3
ЮВ 7 35 км ясно -13.1 -22.6 45 -23 -23 999.5 987.9
ЮВ 7 35 км ясно -13.4 -21.8 49 -23 -23 999.0 987.4
ЮВ 6 35 км ясно -13.1 -20.8 52 -22 -22 998.8 987.2
ЮВ 6 35 км ясно -13.1 -20.6 53 -22 -22 998.3 986.8
ЮВ 6 35 км ясно -13.6 -21.5 51 -23 -23 998.0 986.4
ЮВ 8 35 км ясно -13.3 -20.8 53 -24 -24 997.8 986.3
ЮВ 7 35 км ясно -14.6 -23.5 47 -25 -25 997.7 986.1
ЮВ 8 35 км ясно -14.1 -22.3 50 -25 -25 997.7 986.1
ЮВ 6 35 км 6/0 -13.7 -20.3 57 -23 -23 997.6 986.0 -15.1 -11.7
ЮВ 7 35 км 5/0 -14.1 -21.8 52 -24 -24 997.9 986.3
ЮВ 7 35 км 1/0 -13.4 -22.9 45 -23 -23 998.2 986.6
ЮВ 5 35 км ясно -13.8 -22.0 50 -22 -22 998.4 986.9
ЮВ 4 35 км ясно -14.2 -23.1 47 -22 -22 998.5 986.9
ЮВ 4 35 км ясно -14.0 -22.7 48 -22 -22 999.0 987.4
Ю 3 35 км ясно -12.6 -25.1 34 -18 -18 999.5 988.0
ЮВ 4 35 км 4/0 -12.4 -22.5 43 -19 -19 999.7 988.2
Ю 3 35 км 3/0 -12.1 -23.7 37 -18 -18 1000.0 988.5
ЮВ 5 35 км 1/0 -11.6 -22.6 40 -19 -19 1000.3 988.8
Ю 4 35 км 3/0 -11.6 -24.9 32 -18 -18 1000.8 989.3
ЮВ 3 35 км ясно -11.8 -26.5 28 -17 -17 1001.2 989.7
Ю 3 35 км 1/0 -11.2 -25.2 30 -17 -17 1001.7 990.2 -14.6 -10.7
Ю 2 35 км 6/0 -12.2 -26.1 30 -17 -17 1002.2 990.6
Ю 1 35 км 8/0 -12.8 -24.3 38 -15 -15 1002.8 991.2
Ю 1 35 км 6/0 -11.6 -23.9 35 -14 -14 1003.2 991.7
Ю 3 35 км 9/0 -9.6 -23.1 32 -15 -15 1003.6 992.1
ЮВ 2 35 км 10/0 2000 м -10.2 -19.9 45 -15 -15 1003.9 992.4
ЮВ 5 35 км 10/0 2000 м -9.6 -19.9 43 -17 -17 1004.0 992.6
Ю 3 35 км 9/0 2000 м -8.8 -19.5 42 -14 -14 1004.3 992.9
ЮВ 2 35 км 10/0 2000 м -8.9 -17.2 51 -13 -13 1004.3 992.9
ЮВ 4 35 км 10/10 1350 м -8.6 -17.6 48 -15 -15 1004.4 993.0
ЮВ 5 35 км 9/9 1000 м -8.6 -16.2 54 -16 -16 1004.6 993.1
ЮВ 3 35 км 10/0 2000 м -8.1 -15.0 58 -13 -13 1004.8 993.4
Ю 4 30 км {снег} 10/10 700 м -8.3 -13.2 68 -15 -15 1004.8 993.4 -14.1 -7.8
Ю 4 4400 м слаб. ливневой снег 10/10 800 м -7.7 -10.8 78 -14 -14 1004.8 993.5
ЮЗ 2 3800 м слаб. снег 10/10 270 м -7.6 -9.4 87 -11 -11 1004.8 993.4
СВ 1 8000 м слаб. переохл. дождь (гололёд) 10/10 630 м -6.9 -8.8 86 -9 -9 1004.9 993.5
З 2 5000 м слаб. ледяной дождь 10/10 330 м -6.5 -8.0 89 -10 -10 1004.9 993.6
ЮЗ 2 3800 м слаб. ледяной дождь 10/10 360 м -6.1 -7.6 89 -11 -11 1004.9 993.6
ЮЗ 2 2600 м слаб. снег 10/10 300 м -6.1 -7.6 89 -10 -10 1005.0 993.7
З 2 5000 м слаб. снег 10/10 930 м -6.4 -7.6 91 -10 -10 1004.9 993.6
СЗ 2 12 км слаб. переохл. дождь (гололёд) 10/10 300 м -5.0 -6.4 90 -9 -9 1005.1 993.9
штиль 0 18 км слаб. переохл. дождь (гололёд) 10/10 480 м -4.9 -6.3 90 -6 -6 1005.1 993.9
ЮВ 9
{8}
2900 м слаб. снег 10/10 960 м -3.4 -6.0 82 -12 -12 1004.5 993.3
ЮВ 9 5000 м слаб. снег 10/10 720 м -3.2 -6.4 79 -12 -12 1004.7 993.6
ЮВ 8
{8}
35 км слаб. переохл. дождь (гололёд) 10/0 -3.3 -8.5 67 -11 -11 1005.3 994.1 -8.5 -2.9
СЗ 6 30 км слаб. ливневой снег {дождь} 10/10 1300 м -4.1 -6.5 83 -11 -11 1006.5 995.3
СЗ 7 4600 м слаб. снег {дождь} 10/10 870 м -5.0 -7.1 85 -13 -13 1007.3 996.1
СЗ 11-14
{12}
2000 м слаб. снег {дождь} 10/10 840 м -6.1 -7.6 89 -16 -16 1008.2 996.9
СЗ 12 1900 м слаб. снег {дождь} 10/10 750 м -6.6 -8.0 90 -18 -18 1008.5 997.1
СЗ 11 2800 м слаб. снег {дождь} 10/10 700 м -6.9 -8.3 90 -17 -17 1008.6 997.3
СЗ 11
{12}
3800 м слаб. снег 10/10 1140 м -7.3 -9.0 88 -18 -18 1008.5 997.1
СЗ 9 5000 м слаб. ледяной дождь 10/10 1080 м -7.2 -9.4 84 -17 -17 1008.4 997.0
СЗ 9 6000 м слаб. ледяной дождь 10/10 630 м -7.3 -10.2 80 -17 -17 1008.4 997.0
СЗ 7 8000 м слаб. переохл. морось (гололёд) 10/10 1080 м -7.5 -11.1 75 -16 -16 1007.8 996.4
З 6 30 км слаб. переохл. дождь (гололёд) 10/10 1110 м -7.7 -12.3 70 -16 -16 1006.9 995.5
З 4 35 км в посл. час переохл. осадки (гололёд) 10/10 1320 м -7.3 -12.1 68 -14 -14 1006.1 994.8
СЗ 6 18 км слаб. ливневой снег {дождь} 10/10 1020 м -8.1 -12.7 69 -16 -16 1005.3 993.9 -8.1 -2.8
З 3 30 км слаб. ливневой снег {дождь} 10/10 720 м -7.4 -13.4 62 -13 -13 1004.7 993.3
СЗ 7 7000 м слаб. снег {дождь} 10/10 600 м -7.8 -11.2 77 -16 -16 1004.3 992.9
З 4 35 км в посл. час снег {ливн. снег, дождь} 9/9 630 м -6.9 -12.7 63 -13 -13 1003.3 992.0
З 8 35 км слаб. снег {дождь} 10/10 960 м -7.4 -12.8 65 -16 -16 1002.9 991.6
З 8 35 км слаб. ливневой снег {дождь} 9/9 870 м -7.4 -13.2 63 -16 -16 1002.3 991.0
З 8 30 км слаб. ливневой снег 9/9 900 м -7.4 -11.6 72 -17 -17 1001.8 990.5
З 11 8000 м слаб. ливневой снег 9/9 750 м -7.0 -10.8 74 -17 -17 1001.9 990.6
СЗ 10 6000 м слаб. ливневой снег 9/9 960 м -7.7 -11.7 73 -18 -18 1001.9 990.6
З 8 30 км слаб. ливневой снег 10/10 1230 м -7.2 -10.6 77 -16 -16 1001.8 990.5
СЗ 11 18 км в посл. час снег {ливн. снег} 8/8 1500 м -7.7 -10.6 80 -18 -18 1002.0 990.7
СЗ 12 10 км слаб. ливневой снег 1/1 300 м -8.2 -11.2 79 -19 -19 1002.9 991.5
СЗ 12 9000 м слаб. ливневой снег ясно -8.7 -11.7 79 -20 -20 1004.0 992.6 -9.3 -6.6
СЗ 10 30 км {снег} ясно -8.7 -13.8 67 -19 -19 1004.3 992.9
З 12 1800 м слаб. снег 1/1 1020 м -8.0 -13.8 63 -19 -19 1005.9 994.5
З 12-19
{21}
1100 м слаб. снег 4/4 300 м -8.9 -12.3 76 -20 -20 1007.1 995.7
З 16 600 м слаб. снег 10/10 270 м -9.3 -11.1 87 -22 -22 1008.5 997.0
З 13 2800 м слаб. снег 1/1 240 м -9.1 -12.1 79 -21 -21 1009.7 998.2
СЗ 15
{21}
1800 м слаб. снег 1/1 240 м -9.1 -12.3 78 -21 -21 1010.6 999.1
СЗ 19-22
{24}
1000 м слаб. снег 1/1 90 м -9.2 -11.9 81 -22 -22 1011.5 1000.0
СЗ 17 1300 м слаб. снег ясно -9.4 -12.1 81 -22 -22 1012.3 1000.8
СЗ 15
{24}
1200 м слаб. снег ясно -9.5 -13.2 74 -22 -22 1013.6 1002.1
СЗ 16 1500 м слаб. снег ясно -9.2 -13.7 70 -22 -22 1014.9 1003.4
СЗ 14 21 км в посл. час снег ясно -9.2 -14.7 64 -21 -21 1016.3 1004.8
СЗ 16
{24}
11 км в посл. час снег {ливн. снег} ясно -9.5 -15.4 62 -22 -22 1017.7 1006.1 -10.1 -7.5
СЗ 14 30 км {ливн. снег} ясно -9.3 -16.1 58 -21 -21 1019.0 1007.4
З 11 35 км {ливн. снег} 8/0 -9.8 -16.4 59 -21 -21 1020.7 1009.0
З 10 35 км {ливн. снег} 3/0 -8.8 -18.1 47 -19 -19 1022.0 1010.4
З 7 35 км {ливн. снег} 9/0 -9.2 -17.9 49 -18 -18 1023.3 1011.7
З 6 35 км {ливн. снег} 9/9 800 м -9.1 -16.2 56 -17 -17 1024.4 1012.7
СЗ 5 30 км 9/9 420 м -9.1 -12.7 75 -16 -16 1025.3 1013.6
ЮЗ 2 3500 м слаб. снег 10/10 330 м -9.1 -13.0 73 -14 -14 1026.3 1014.6
ЮЗ 5 21 км слаб. снег 10/10 360 м -9.8 -13.9 72 -18 -18 1026.9 1015.2
ЮЗ 4 3700 м слаб. снег 10/10 420 м -9.9 -12.9 79 -17 -17 1027.4 1015.7
ЮЗ 4 14 км слаб. снег 10/10 420 м -9.7 -13.1 76 -17 -17 1028.3 1016.5
Ю 2 13 км слаб. ливневой снег 10/10 800 м -9.9 -14.2 71 -14 -14 1028.8 1017.0
ЮЗ 3 30 км слаб. ливневой снег 10/0 -9.3 -15.0 63 -14 -14 1029.2 1017.5 -10.3 -8.4
Ю 2 28 км в посл. час снег {ливн. снег} 10/10 420 м -9.7 -15.2 64 -14 -14 1030.1 1018.4
Ю 2 35 км {ливн. снег} 10/10 1260 м -10.1 -15.8 63 -15 -15 1030.5 1018.7
Ю 2 35 км {ливн. снег} 10/0 2000 м -10.2 -18.1 52 -15 -15 1030.9 1019.1
ЮВ 4 35 км {ливн. снег} 10/10 1500 м -10.0 -18.4 50 -17 -17 1031.1 1019.3
ЮВ 4 35 км {ливн. снег} 9/0 -12.1 -18.8 57 -19 -19 1031.6 1019.7
ЮВ 5 35 км 9/9 240 м -10.4 -18.6 51 -18 -18 1031.6 1019.8
ЮВ 7 35 км 10/0 2000 м -9.6 -18.6 48 -18 -18 1032.0 1020.2
ЮВ 7 35 км в посл. час снег {ливн. снег} 8/8 330 м -9.4 -16.9 54 -18 -18 1032.8 1021.0
ЮВ 8 35 км {ливн. снег, снег} 9/9 500 м -9.2 -16.0 58 -19 -19 1033.0 1021.2
ЮВ 7 26 км слаб. ливневой снег 9/9 600 м -8.9 -14.2 65 -18 -18 1033.6 1021.8
ЮВ 8 22 км слаб. ливневой снег 10/10 500 м -8.8 -13.1 71 -18 -18 1034.1 1022.4
ЮВ 9 8000 м слаб. снег 10/10 400 м -8.8 -12.6 74 -19 -19 1035.0 1023.2 -12.1 -8.5
ЮВ 10 9000 м слаб. снег 10/10 330 м -8.9 -13.0 72 -19 -19 1035.4 1023.6
ЮВ 10 6000 м слаб. снег 10/10 300 м -9.3 -12.7 76 -20 -20 1036.1 1024.3
ЮВ 12 2500 м слаб. ливневой снег 10/10 300 м -9.1 -11.9 80 -20 -20 1036.7 1024.9
ЮВ 12 2400 м слаб. снег 9/9 400 м -9.0 -12.4 76 -20 -20 1037.4 1025.6
Местоположение метеостанции Qaarsut Mittarfia (Гренландия): широта 70.73 долгота -52.70 высота над уровнем моря 89 м.
В архиве по умолчанию представлена погода Qaarsut Mittarfia за последнюю неделю. Архивные данные за месяц целиком и за предыдущие месяцы, начиная с января 2011 года, Вы можете получить, выбрав интересующий диапазон дат из раскрывающегося списка и нажав кнопку "Найти!".
*Определитесь, кто Вы:
Внимание! Время в таблицах - всемирное. Для получения местного времени необходимо прибавить поправку, которая равна -3 ч.
Смотрите также архив погоды в соседних городах и на ближайших метеорологических станциях:
Партнеры нашего сайта:
Брызговик задний прицепа
брызговик задний прицепа
командор-авто.рф

     
Пояснения к столбцам:
  • Ветер - указаны скорость ветра в м/с - средняя за 10 мин, порывы в срок и между сроками (в фигурных скобках) и направление, откуда дует ветер: С - северный,
  • СВ - северо-восточный, В - восточный, ЮВ - юго-восточный, Ю - южный, ЮЗ - юго-западный, З - западный, СЗ - северо-западный.
  • Видимость - горизонтальная дальность видимости в метрах или километрах. При видимости от 1 до 10 км при отсутствии осадков обычно наблюдается дымка, при ухудшении видимости до 1 км и менее - туман. В сухую погоду видимость может ухудшаться дымом, пылью или мглою.
  • Явления - указаны атмосферные явления, наблюдавшиеся в срок или в последний час перед сроком; фигурными скобками обозначены явления, наблюдавшиеся между сроками (за 1-3 часа до срока); квадратными скобками обозначены град или гололедные отложения с указанием их диаметра в мм.
  • Облачность - указаны через наклонную черту общая и нижняя облачность в баллах и высота нижней границы облаков в метрах; квадратными скобками обозначены формы облаков: Ci - перистые, Cs - перисто-слоистые, Cc - перисто-кучевые, Ac - высококучевые, As - высокослоистые, Sc - слоисто-кучевые, Ns - слоисто-дождевые, Cu - кучевые, Cb - кучево-дождевые. Подробнее классификацию облаков см. в Атласе облаков (PDF).
  • T - Температура воздуха - температура, измеренная на высоте 2 м над землей.
  • Td - Температура точки росы - температура, при понижении до которой содержащийся в воздухе водяной пар достигнет насыщения.
  • f - Относительная влажность воздуха - влажноcть воздуха, измеренная на высоте 2 м над землей.
  • Te - Эффективная температура - температура, которую ощущает одетый по сезону человек в тени. Характеристика душности погоды. При расчете учитывается влияние влажности воздуха и скорости ветра на теплоощущения человека.
  • Tes - Эффективная температура на солнце - температура, которую ощущает человек, с поправкой на солнечный нагрев. Характеристика знойности погоды. Зависит от высоты солнца над горизонтом, облачности и скорости ветра. Ночью, в пасмурную погоду, а также при ветре 12 м/с и более поправка равна нулю.
  • P - Атмосферное давление - приведенное к уровню моря атмосферное давление.
  • Po - Атмосферное давление - измеренное на уровне метеостанции атмосферное давление.
  • Tmin - Минимальная температура - минимум температуры воздуха на высоте 2 м над землей.
  • Tmax - Максимальная температура - максимум температуры воздуха на высоте 2 м над землей.
  • R - Количество осадков - Количество выпавших осадков за период времени, мм. При наведении курсора мыши на число - период времени, за который выпало указанное количество осадков.
  • R24 - Количество осадков - Количество выпавших осадков за 24 часа, мм.
  • S - Снежный покров - Высота снежного покрова, см. При наведении курсора мыши на число - состояние снежного покрова и степень покрытия местности в баллах.